Home   Weather   Whistler   Past weeks

Flag for Canada Past Weather in Whistler, British Columbia, Canada — Yesterday and Last 2 Weeks

Now
43 °F

Quite cool.


Feels Like: 40 °F
Forecast: 36 / 47 °F
Wind: 5 mph from Southeast

Location: Squamish Airport

Current Time: Apr 29, 2017 at 8:13:09 pm

Latest Report: Apr 29, 2017 at 7:00 pm


Visibility: N/A

Pressure: 30.08 "Hg (27.70 "Hg at 674m altitude)

Humidity: 90%

Dew Point: 40 °F

Location of WhistlerLocation

Past Weather in Whistler — Graph

°F

Whistler Temperature Yesterday

Maximum temperature yesterday: 58 °F (at 5:00 pm)
Minimum temperature yesterday: 39 °F (at 1:00 am)
Average temperature yesterday: 48 °F

High & Low Weather Summary for the Past Weeks

 TemperatureHumidityPressure
High68 °F (Apr 21, 5:00 pm)100% (Apr 16, 5:00 am)30.43 "Hg (Apr 16, 5:00 am)
Low33 °F (Apr 16, 5:00 am)22% (Apr 16, 5:00 pm)29.70 "Hg (Apr 26, 5:00 am)
Average48 °F81%30.00 "Hg
* Reported Apr 14 7:00 pm — Apr 29 7:00 pm, Whistler, Weather by CustomWeather, © 2017

Note: Actual official high and low records may vary slightly from our data, if they occured in-between our weather recording intervals... More about our weather records

Advertising

Whistler Weather History for the Previous 24 Hours

Scroll right to see more
 ConditionsComfort  
Time TempWeatherWind HumidityBarometerVisibility
7:00 pm
Sat, Apr 29
43 °FQuite cool.5 mph90%30.08 "HgN/A
6:00 pm42 °FQuite cool.3 mph97%30.10 "HgN/A
5:00 pm44 °FQuite cool.5 mph93%30.13 "HgN/A
4:00 pm45 °FCool.5 mph92%30.14 "HgN/A
3:00 pm45 °FCool.5 mph93%30.15 "HgN/A
2:00 pm44 °FQuite cool.7 mph97%30.17 "HgN/A
1:00 pm47 °FCool.6 mph85%30.16 "HgN/A
12:00 pm50 °FCool.6 mph67%30.16 "HgN/A
11:00 am48 °FCool.5 mph71%30.20 "HgN/A
10:00 am46 °FCool.1 mph76%30.21 "HgN/A
9:00 am44 °FQuite cool.1 mph84%30.24 "HgN/A
8:00 am42 °FQuite cool.No wind89%30.27 "HgN/A
7:00 am40 °FChilly.No wind95%30.27 "HgN/A
6:00 am36 °FChilly.1 mph93%30.27 "HgN/A
5:00 am38 °FChilly.1 mph95%30.27 "HgN/A
4:00 am38 °FChilly.1 mph88%30.28 "HgN/A
3:00 am38 °FChilly.1 mph95%30.29 "HgN/A
2:00 am39 °FChilly.No wind94%30.30 "HgN/A
1:00 am40 °FChilly.2 mph93%30.30 "HgN/A
12:00 am42 °FQuite cool.1 mph89%30.29 "HgN/A
11:00 pm
Fri, Apr 28
44 °FQuite cool.1 mph86%30.30 "HgN/A
10:00 pm46 °FCool.1 mph77%30.30 "HgN/A
9:00 pm51 °FCool.3 mph63%30.28 "HgN/A
8:00 pm52 °FCool.5 mph57%30.27 "HgN/A
Weather by CustomWeather, © 2017

See weather overviewHow to use our weather pages